Location: Unspecified
(0.0000°N, 0.0000°E)
Time: 14:12:58
(UTC+00:00)

deb Delta 126 - Visible Passes

Search period start: 15 February 2026 00:00
Search period end: 25 February 2026 00:00
Orbit: 1503 x 2091 km, 101.9° (Epoch: 13 February)

Date Brightness Start Highest point End Pass type
(mag) Time Alt. Az. Time Alt. Az. Time Alt. Az.
15 Feb ? 03:21:37 10° NNE 03:30:19 62° ESE 03:39:57 10° S visible
15 Feb ? 05:25:01 10° NW 05:30:18 17° WNW 05:35:53 10° WSW visible
16 Feb ? 01:59:11 10° E 02:02:06 12° ESE 02:05:04 10° SE visible
16 Feb ? 03:52:28 10° NNE 04:01:18 83° WNW 04:11:10 10° SSW visible
17 Feb ? 02:26:01 10° ENE 02:32:48 24° ESE 02:40:03 10° SSE visible
17 Feb ? 04:23:56 10° N 04:32:21 50° WNW 04:41:42 10° SSW visible
18 Feb ? 02:55:20 10° NE 03:03:36 41° ESE 03:12:40 10° S visible
18 Feb ? 04:56:09 10° NNW 05:03:26 29° WNW 05:11:22 10° SW visible
19 Feb ? 03:25:37 10° NNE 03:34:30 69° ESE 03:44:25 10° S visible
19 Feb ? 05:29:46 10° NW 05:34:30 15° WNW 05:39:28 10° WSW visible
20 Feb ? 02:01:52 10° E 02:06:15 14° ESE 02:10:49 10° SE visible
20 Feb ? 03:56:35 10° N 04:05:29 76° WNW 04:15:29 10° SSW visible
21 Feb ? 02:29:38 10° NE 02:36:58 27° ESE 02:44:52 10° SSE visible
21 Feb ? 04:28:11 10° N 04:36:34 46° WNW 04:45:52 10° SW visible
22 Feb ? 02:59:12 10° NE 03:07:47 46° ESE 03:17:15 10° S visible
22 Feb ? 05:00:34 10° NNW 05:07:39 26° WNW 05:15:20 10° SW visible
23 Feb ? 03:29:38 10° NNE 03:38:42 75° ESE 03:48:51 10° S visible
23 Feb ? 05:34:40 10° NW 05:38:42 14° WNW 05:42:53 10° W visible
24 Feb ? 02:04:59 10° ENE 02:10:25 17° ESE 02:16:08 10° SE visible
24 Feb ? 04:00:44 10° N 04:09:42 69° WNW 04:19:47 10° SSW visible
